Tracking 18186 objects as of 29-March-2017
HD Live streaming from Space Station
objects crossing your sky now

AMC-4 (GE-4)

Track AMC-4 (GE-4) now!
AMC-4 (GE-4) is classified as:


NORAD ID: 25954
Int'l Code: 1999-060A
Perigee: 35,785.1 km
Apogee: 35,803.0 km
Inclination: 0.0 °
Period: 1,436.1 minutes
Semi major axis: 42165 km
RCS: 18.9697 m2 (large)
Launch date: November 13, 1999
Source: SOCIETE EUROPEENNE DES SATELLITES (SES)
Launch site: FRENCH GUIANA (FRGUI)

Broadcasting, cable, internet; CONUS, Canada, Mexico, Caribbean, Central America, South America; 28 Ku- and 24 C-band
Your satellite tracking list
Your tracking list is empty





NASA's NSSDC Master Catalog

Two Line Element Set (TLE):
1 25954U 99060A   17087.66878015 -.00000287 +00000-0 +00000-0 0  9991
2 25954 000.0480 077.4480 0002127 339.4443 303.1232 01.00270611009967
Source of the keplerian elements: AFSPC